COSMOS 2251 DEB, 34611

Orbit data source: Space-Track

COSMOS 2251 DEB, 34611 is space debris in LEO originally from a launch on Wed, 16 Jun 1993 UTC launched from the Plesetsk Missile And Space Complex (PKMTR). The debris from Iridium 33, an American commercial communications satellite, has been tracked extensively since its accidental collision with the defunct Russian satellite Cosmos 2251 in 2009. This event, occurring at high speed in low Earth orbit (LEO), generated thousands of pieces of space debris, significantly increasing the risk of further collisions. The Iridium 33 debris cloud has impacted space traffic management and orbital debris mitigation strategies, making it a subject of ongoing study in space situational awareness.

Loading next visibility...
Identifier
34611, 1993-036WG
Orbit
LEO
Country
Flag of CISCIS
Related business
Manufacturer
Unknown
Mission
Spacecraft
Bus & Motor
Unknown
Mass
Unknown
Launch date (UTC)
1993-06-16 (33 years ago)
Launch vehicle
Unknown
Launch site
Plesetsk Missile And Space Complex (PKMTR)
Object type
Payload
Rocket body
Debris
Shape & HBR
Unknown shape, 0.1 m
Radar Cross Section
Small (<0.1 m²)

Expand to show TLE details & history
Last TLE update: 9 hours ago

TLE from 9 hours ago
0 COSMOS 2251 DEB
1 34611U 93036WG  26035.33852330  .00012869  00000-0  21047-2 0  9991
2 34611  74.0552 357.1453 0021843  18.5845 102.4252 14.70712142891785
Epoch: 2026-02-04T08:07Z
TLE epoch observation values (Epoch: 2026-02-04T08:07:28.413Z)
Latitude
55.39414°
Longitude
-103.54919°
Altitude
670.987 km
Speed
7.525 km/s
True Right ascension
10h 11m 18s
True Declination
55° 13' 52"
Sunlit
Object was in full shadow at epoch
Visualization orbit readout
Latitude
Unknown
Longitude
Unknown
Altitude
Unknown
Speed
Unknown
Apparent Right ascension
Unknown
Apparent Declination
Unknown
Sunlit
N/A
Visualization observer readout
Local Sidereal Time
18:37:39
Azimuth
Unknown
Elevation
Unknown
Doppler factor
Unknown
Orbital elements
Apogee altitude
671.745 km
Perigee altitude
641.014 km
Semi-major axis
7,034.517 km
Eccentricity
0.00218
Inclination
74.0552°
RAAN
357.1453°
Arg. of periapsis
18.5845°
True anomaly
102.6695°
Mean anomaly
102.4252°
Eccentric anomaly
102.54736°
Mean motion
3.67868 °/min
Orbital period
97.86 mins
BSTAR
0.0021047

Documentation

Showing up to 5 results
|